DW1345 Weather Reports


Display with metric or nautical units.
time (UTC)temp
F
wind
direction
speed
MPH
gust
MPH
rain 1hr
in
rain 24hr
in
rain mn
in
humidity
%
barometer
mb
20260507024516 36 119 3.0 0.0 0.00 0.00 0.03 93 1010.3
20260507023015 36 101 2.0 0.0 0.00 0.00 0.03 94 1010.5
20260507021514 35 63 1.0 0.0 0.00 0.00 0.03 93 1010.4
20260507020013 35 63 1.0 0.0 0.00 0.00 0.03 93 1010.3
20260507014523 35 64 3.0 0.0 0.00 0.00 0.03 93 1010.3
20260507013029 35 90 0.0 0.0 0.00 0.00 0.03 93 1010.2
20260507011513 35 53 0.0 0.0 0.00 0.00 0.03 93 1010.2
20260507010007 35 53 0.0 0.0 0.00 0.00 0.03 93 1010.2
20260507004505 35 53 0.0 0.0 0.00 0.00 0.03 93 1010.1
20260507003004 35 53 1.0 0.0 0.00 0.00 0.03 93 1010.1
20260507001503 35 53 1.0 0.0 0.00 0.00 0.03 92 1010.0
20260507000005 35 54 1.0 0.0 0.00 0.00 0.03 92 1010.0
20260506234600 35 54 2.0 0.0 0.00 0.00 0.03 92 1009.9
20260506233107 35 80 2.0 0.0 0.00 0.00 0.03 92 1009.8
20260506231555 36 117 0.0 0.0 0.00 0.00 0.03 92 1009.7
20260506230054 36 117 0.0 0.0 0.00 0.00 0.02 92 1009.6
20260506224553 36 125 0.0 0.0 0.00 0.00 0.02 92 1009.6
20260506223105 36 125 0.0 0.0 0.00 0.00 0.02 92 1009.6
20260506221549 36 125 0.0 0.0 0.00 0.00 0.01 91 1009.6
20260506220047 36 125 0.0 0.0 0.00 0.00 0.00 91 1009.4
20260506214546 36 125 0.0 0.0 0.00 0.00 0.09 91 1009.6
20260506213044 37 127 0.0 0.0 0.00 0.00 0.09 91 1009.3
20260506211546 37 127 0.0 0.0 0.00 0.00 0.09 91 1009.4
20260506210045 37 121 0.0 0.0 0.00 0.00 0.07 91 1009.4
20260506204541 37 120 3.0 0.0 0.00 0.00 0.06 91 1009.0
20260506203044 37 103 2.0 0.0 0.00 0.00 0.06 91 1009.0
20260506201539 38 129 2.0 0.0 0.00 0.00 0.06 91 1009.0
20260506200056 38 114 0.0 0.0 0.00 0.00 0.06 91 1008.8
20260506194539 38 125 0.0 0.0 0.00 0.00 0.06 91 1008.9
20260506193036 38 127 1.0 0.0 0.00 0.00 0.05 91 1008.7
20260506191536 38 62 0.0 0.0 0.00 0.00 0.05 91 1008.6
20260506190035 37 57 2.0 0.0 0.00 0.00 0.05 91 1008.4
20260506184533 38 59 1.0 0.0 0.00 0.00 0.05 91 1008.3
20260506183033 37 62 0.0 0.0 0.00 0.00 0.04 91 1008.2
20260506181535 37 64 2.0 0.0 0.00 0.00 0.04 90 1008.3
20260506180039 37 44 2.0 0.0 0.00 0.00 0.04 90 1008.2
20260506174530 37 51 4.0 0.0 0.00 0.00 0.04 90 1008.1
20260506173028 37 37 3.0 0.0 0.00 0.00 0.04 89 1008.0
20260506171543 37 36 3.0 0.0 0.00 0.00 0.04 88 1007.9
20260506170026 37 16 3.0 0.0 0.00 0.00 0.04 87 1008.0
20260506164524 38 61 3.0 0.0 0.00 0.00 0.04 85 1007.9
20260506163025 38 55 2.0 0.0 0.00 0.00 0.02 83 1008.2
20260506161534 39 39 3.0 0.0 0.00 0.00 0.02 81 1007.8
20260506160020 40 360 3.0 0.0 0.00 0.00 0.00 79 1007.6
20260506154518 41 314 5.0 0.0 0.00 0.00 0.00 76 1007.5
20260506153016 42 278 2.0 0.0 0.00 0.00 0.00 76 1007.3
20260506151515 42 273 5.0 0.0 0.00 0.00 0.00 74 1007.0
20260506150020 44 315 4.0 0.0 0.00 0.00 0.00 71 1007.0
20260506144514 44 234 4.0 0.0 0.00 0.00 0.00 71 1006.9
20260506143013 45 277 5.0 0.0 0.00 0.00 0.00 70 1006.8
20260506141513 47 244 4.0 0.0 0.00 0.00 0.00 65 1006.8
20260506140012 48 190 4.0 0.0 0.00 0.00 0.00 63 1006.8
20260506134525 46 248 3.0 0.0 0.00 0.00 0.00 72 1006.9
20260506133012 45 229 6.0 0.0 0.00 0.00 0.00 74 1006.8
20260506131509 46 257 6.0 0.0 0.00 0.00 0.00 68 1006.7
20260506130007 48 246 5.0 0.0 0.00 0.00 0.00 64 1006.5
20260506124511 48 231 4.0 0.0 0.00 0.00 0.00 61 1006.5
20260506123003 49 235 3.0 0.0 0.00 0.00 0.00 59 1006.3
20260506121507 48 206 2.0 0.0 0.00 0.00 0.00 57 1006.3
20260506114556 47 240 3.0 0.0 0.00 0.00 0.00 60 1006.2
20260506113053 47 269 3.0 0.0 0.00 0.00 0.00 61 1006.1
20260506111609 47 263 2.0 0.0 0.00 0.00 0.00 61 1006.0
20260506110051 46 212 2.0 0.0 0.00 0.00 0.00 63 1006.1
20260506104547 45 227 3.0 0.0 0.00 0.00 0.00 62 1005.9
20260506103044 46 228 2.0 0.0 0.00 0.00 0.00 63 1006.1
20260506101542 47 251 3.0 0.0 0.00 0.00 0.00 61 1005.9
20260506100038 45 193 2.0 0.0 0.00 0.00 0.00 67 1005.8
20260506094536 45 264 1.0 0.0 0.00 0.00 0.00 65 1005.7
20260506093034 43 254 2.0 0.0 0.00 0.00 0.00 67 1005.7
20260506091533 43 262 2.0 0.0 0.00 0.00 0.00 69 1005.5
20260506090031 41 285 0.0 0.0 0.00 0.00 0.00 71 1005.5
20260506084530 41 285 1.0 0.0 0.00 0.00 0.00 69 1005.2
20260506083027 43 264 0.0 0.0 0.00 0.00 0.00 64 1005.4
20260506081531 45 202 0.0 0.0 0.00 0.00 0.00 63 1005.3
20260506073019 44 185 0.0 0.0 0.00 0.00 0.00 67 1005.0
20260506071515 42 159 0.0 0.0 0.00 0.00 0.00 70 1004.7
20260506061510 41 131 2.0 0.0 0.00 0.00 0.00 73 1004.4
20260506050108 39 105 4.0 0.0 0.00 0.00 0.00 75 1003.8
20260506044558 39 131 0.0 0.0 0.00 0.00 0.00 76 1003.6
20260506043057 39 135 0.0 0.0 0.00 0.00 0.00 78 1003.6
20260506041602 38 134 1.0 0.0 0.00 0.00 0.00 78 1003.6
20260506040052 38 68 2.0 0.0 0.00 0.00 0.00 78 1003.4
20260506034558 38 72 1.0 0.0 0.00 0.00 0.00 78 1003.2
20260506033051 38 51 0.0 0.0 0.00 0.00 0.00 79 1003.2
20260506031549 37 50 0.0 0.0 0.00 0.00 0.00 80 1003.2
20260506030048 37 46 0.0 0.0 0.00 0.00 0.00 80 1002.9